Westfield, MA

7:24 AM EDT on September 19, 2019 (GMT -0400)
Barnes Municipal

Weather History for KBAF - August, 2019

Change the Weather History Date:

Thursday, August 22, 2019

  Actual Average Record
Temperature  
Mean Temperature 76 °F -  
Max Temperature 89 °F 79 °F 91 °F (2003)
Min Temperature 64 °F 56 °F 50 °F (2004)
Cooling Degree Days 12    
Growing Degree Days 26 (Base 50)    
Moisture  
Dew Point 65 °F    
Average Humidity 86    
Maximum Humidity 100    
Minimum Humidity 42    
Precipitation  
Precipitation 0.00 in - - ()
Sea Level Pressure  
Sea Level Pressure 29.85 in    
Wind  
Wind Speed 3 mph (SW)    
Max Wind Speed 12 mph    
Max Gust Speed 14 mph    
Visibility 4 miles    
Events Fog    
Averages and records for this station are not official NWS values.
T = Trace of Precipitation, MM = Missing Value Source: NWS Daily Summary

Daily Weather History Graph

Daily Weather History Graph

Search for Another Location

Airport or City:

Astronomy

Aug. 22, 2019 Rise Set
Actual Time 6:05 AM EDT 7:41 PM EDT
Civil Twilight 5:35 AM EDT 8:10 PM EDT
Nautical Twilight 5:00 AM EDT 8:46 PM EDT
Astronomical Twilight 4:21 AM EDT 9:24 PM EDT
Moon 11:22 PM EDT (8/22) 12:45 PM EDT (8/22)
Length of Visible Light 14h 34m
Length of Day
13h 35m
Waning Gibbous, 60% of the Moon is Illuminated
Aug 22
Waning Gibbous
Aug 23
Last Quarter
Aug 30
New
Sep 5
First Quarter
Sep 14
Full

Hourly Weather History & Observations

Time (EDT) Temp. Heat Index Dew Point Humidity Pressure Visibility Wind Dir Wind Speed Gust Speed Precip Events Conditions
12:03 AM 64.9 °F - 64.0 °F 97% 29.87 in 1.0 mi South 4.6 mph - N/A   Mist
12:08 AM 66.0 °F - 64.9 °F 96% 29.87 in 2.5 mi South 4.6 mph - N/A   Partly Cloudy
12:15 AM 66.0 °F - 64.9 °F 96% 29.87 in 4.0 mi South 4.6 mph - N/A   Partly Cloudy
12:37 AM 66.0 °F - 64.9 °F 96% 29.87 in 1.8 mi SSE 3.5 mph - N/A   Partly Cloudy
12:53 AM 66.0 °F - 64.9 °F 96% 29.86 in 1.0 mi Calm Calm - N/A   Mist
12:56 AM 66.0 °F - 64.9 °F 96% 29.86 in 2.0 mi Calm Calm - N/A   Scattered Clouds
1:07 AM 66.0 °F - 64.9 °F 96% 29.85 in 1.0 mi Calm Calm - N/A   Mist
1:25 AM 66.0 °F - 64.9 °F 96% 29.85 in 0.5 mi Calm Calm - N/A Fog Fog
1:46 AM 64.9 °F - 64.0 °F 97% 29.84 in 0.2 mi Calm Calm - N/A Fog Fog
1:53 AM 64.9 °F - 64.0 °F 97% 29.83 in 0.5 mi Calm Calm - N/A Fog Fog
2:17 AM 64.9 °F - 64.0 °F 97% 29.84 in 2.0 mi South 4.6 mph - N/A   Overcast
2:27 AM 66.0 °F - 64.9 °F 96% 29.84 in 0.8 mi SSW 5.8 mph - N/A   Mist
2:42 AM 66.0 °F - 64.9 °F 96% 29.84 in 0.5 mi Calm Calm - N/A Fog Fog
2:53 AM 66.0 °F - 64.9 °F 96% 29.83 in 0.5 mi Calm Calm - N/A Fog Fog
3:07 AM 66.0 °F - 64.9 °F 96% 29.83 in 0.2 mi Calm Calm - N/A Fog Fog
3:34 AM 64.9 °F - 64.0 °F 97% 29.82 in 0.2 mi Calm Calm - N/A Fog Fog
3:53 AM 64.9 °F - 64.0 °F 97% 29.82 in 0.5 mi Calm Calm - N/A Fog Fog
4:07 AM 64.9 °F - 64.0 °F 97% 29.82 in 0.2 mi Calm Calm - N/A Fog Fog
4:11 AM 64.9 °F - 64.0 °F 97% 29.82 in 0.5 mi Calm Calm - N/A Fog Fog
4:45 AM 64.0 °F - 63.0 °F 96% 29.82 in 1.0 mi Calm Calm - N/A   Mist
4:53 AM 64.0 °F - 63.0 °F 96% 29.82 in 0.8 mi West 3.5 mph - N/A   Mist
5:03 AM 66.0 °F - 64.0 °F 93% 29.82 in 0.5 mi Calm Calm - N/A Fog Fog
5:09 AM 66.0 °F - 64.9 °F 96% 29.82 in 0.2 mi NNW 3.5 mph - N/A Fog Fog
5:30 AM 64.9 °F - 64.0 °F 97% 29.83 in 0.2 mi Calm Calm - N/A Fog Fog
5:53 AM 64.9 °F - 64.0 °F 97% 29.83 in 0.2 mi Calm Calm - N/A Fog Fog
6:46 AM 64.9 °F - 64.0 °F 97% 29.84 in 0.5 mi Calm Calm - N/A Fog Fog
6:53 AM 66.0 °F - 64.9 °F 96% 29.84 in 0.8 mi Calm Calm - N/A   Mist
7:08 AM 66.0 °F - 64.9 °F 96% 29.85 in 2.0 mi Calm Calm - N/A   Overcast
7:16 AM 66.0 °F - 64.9 °F 96% 29.85 in 1.0 mi Calm Calm - N/A   Overcast
7:23 AM 66.0 °F - 64.9 °F 96% 29.85 in 0.8 mi Calm Calm - N/A   Overcast
7:45 AM 66.9 °F - 66.0 °F 97% 29.86 in 2.0 mi SSE 3.5 mph - N/A   Overcast
7:48 AM 66.2 °F - 66.2 °F 100% 29.86 in 5.0 mi Calm Calm - N/A   Overcast
7:53 AM 66.9 °F - 66.0 °F 97% 29.86 in 2.0 mi South 3.5 mph - N/A   Overcast
8:29 AM 69.1 °F - 66.9 °F 93% 29.85 in 2.0 mi Calm Calm - N/A   Scattered Clouds
8:31 AM 69.1 °F - 66.9 °F 93% 29.85 in 5.0 mi Calm Calm - N/A   Scattered Clouds
8:53 AM 71.1 °F - 68.0 °F 90% 29.86 in 10.0 mi Calm Calm - N/A   Partly Cloudy
9:53 AM 75.0 °F - 70.0 °F 84% 29.86 in 10.0 mi South 3.5 mph - N/A   Scattered Clouds
10:53 AM 81.0 °F 84.9 °F 71.1 °F 72% 29.86 in 10.0 mi SSW 3.5 mph - N/A   Partly Cloudy
11:53 AM 84.0 °F 86.5 °F 66.9 °F 56% 29.85 in 10.0 mi NNW 5.8 mph 13.8 mph N/A   Mostly Cloudy
12:53 PM 84.9 °F 87.1 °F 66.0 °F 53% 29.84 in 10.0 mi WNW 8.1 mph - N/A   Scattered Clouds
1:53 PM 86.0 °F 88.2 °F 66.0 °F 51% 29.85 in 10.0 mi NNW 10.4 mph - N/A   Scattered Clouds
2:53 PM 87.1 °F 88.3 °F 64.0 °F 46% 29.84 in 10.0 mi WNW 8.1 mph - N/A   Scattered Clouds
3:53 PM 89.1 °F 90.0 °F 63.0 °F 42% 29.82 in 10.0 mi West 10.4 mph - N/A   Partly Cloudy
4:53 PM 81.0 °F 81.9 °F 62.1 °F 52% 29.84 in 10.0 mi West 11.5 mph - N/A   Overcast
5:53 PM 80.1 °F 81.7 °F 64.0 °F 58% 29.85 in 10.0 mi WSW 6.9 mph - 0.00 in   Overcast
6:53 PM 77.0 °F - 68.0 °F 74% 29.85 in 10.0 mi South 3.5 mph - N/A   Clear
7:53 PM 73.9 °F - 68.0 °F 82% 29.85 in 10.0 mi South 3.5 mph - N/A   Clear
8:53 PM 73.9 °F - 68.0 °F 82% 29.88 in 10.0 mi NW 5.8 mph - N/A   Overcast
9:53 PM 75.0 °F - 55.9 °F 51% 29.88 in 10.0 mi NNW 11.5 mph - N/A   Overcast
10:53 PM 73.0 °F - 57.0 °F 57% 29.88 in 10.0 mi NE 4.6 mph - N/A   Overcast
11:53 PM 73.0 °F - 55.9 °F 55% 29.90 in 10.0 mi North 3.5 mph - N/A   Overcast